Regional Weather Roundup
Issued by NWS

Home | Current Version | Previous Version | Text Only | Print | Product List | Glossary Off
Versions: 1 2 3 4 5 6 7 8 9 10 11 12 13 14 15 16 17 18 19 20 21 22 23 24 25 26 27 28 29 30 31 32 33 34 35 36 37 38 39 40 41 42 43 44 45 46 47 48 49 50

000
ASUS43 KMPX 191110
RWRMN
WEATHER ROUNDUP FOR MINNESOTA
NATIONAL WEATHER SERVICE TWIN CITIES/CHANHASSEN MN
600 AM CDT SAT APR 19 2014


NOTE: "FAIR" INDICATES FEW OR NO CLOUDS BELOW 12,000 FEET WITH NO
SIGNIFICANT WEATHER AND/OR OBSTRUCTIONS TO VISIBILITY. N/A MEANS
CURRENT SKY AND/OR WEATHER CONDITIONS ARE NOT AVAILABLE.

MNZ060>063-068>070-191200-
   Twin Cities Metro

CITY           SKY/WX    TMP DP  RH WIND       PRES   REMARKS
TWIN CITIES    MOCLDY    43  32  65 SE21G32   30.12F
ST PAUL        PTCLDY    44  31  60 SE18G35   30.14F
CRYSTAL        MOCLDY    45  30  55 SE14G39   30.09F
BLAINE         MOCLDY    46  32  57 SE18G29   30.10F
EDEN PRAIRIE   MOCLDY    45  32  60 SE25G35   30.08F
LAKEVILLE      PTCLDY    41  34  75 SE18G25   30.14F
SOUTH ST PAUL  PTCLDY    46  32  56 SE18G29   30.14F
LAKE ELMO      FAIR      43  32  65 SE12G18   30.15F
$$
MNZ001>005-007-008-013>017-022>024-027-028-191200-
   Northwest Minnesota

CITY           SKY/WX    TMP DP  RH WIND       PRES   REMARKS
BEMIDJI        CLOUDY    39  31  74 SE21G28   29.87S
HALLOCK        CLOUDY    41  32  70 SE16      29.72F
ROSEAU         DRIZZLE   36  30  80 SE16G25   29.81F
WARROAD        CLOUDY    36  30  80 SE12G24   29.85F
THIEF RVR FALL CLOUDY    43  32  65 SE13      29.77F
CROOKSTON      MOCLDY    46  36  66 S23       29.75S
FOSSTON        CLOUDY    45  34  65 SE25G32   29.78F
DETROIT LAKES  DRIZZLE   43  36  75 S20G26    29.82F
MOORHEAD       MOCLDY    50  39  66 SE28G44   29.76R
PARK RAPIDS    CLOUDY    41  35  79 SE23      29.88F
$$
MNZ006-009>011-018-025>026-191200-
   North Central Minnesota

CITY           SKY/WX    TMP DP  RH WIND       PRES   REMARKS
BAUDETTE       CLOUDY    34  30  85 SE18G30   29.90F WCI  23
FLAG ISLAND    CLOUDY    34  30  86 SE20G29   29.88F WCI  22
INTL FALLS     FRZ RAIN  33  30  88 SE22G30   30.02R WCI  21
WASKISH        CLOUDY    36  30  80 SE22G32   29.89F
BIG FORK       MIX PCPN  36  28  75 SE13G23   29.99R
LONGVILLE      RAIN      39  32  75 SE18G29   29.94F
GRAND RAPIDS   CLOUDY    34  27  75 SE17G25   30.00F WCI  23
CRANE LAKE     LGT SNOW  30  27  86 E6        30.11F VSB 3/4 WCI  24
ORR            MIX PCPN  32  28  86 SE13G26   30.02F WCI  22
COOK           MIX PCPN  34  28  80 SE12G24   30.06F WCI  25
$$
MNZ012-019>021-037-191200-
   Northeast Minnesota

CITY           SKY/WX    TMP DP  RH WIND       PRES   REMARKS
DULUTH         LGT RAIN  34  25  69 E21G29    30.11F WCI  22
ELY            CLOUDY    34  25  69 SE14G21   30.16F WCI  24
HIBBING        LGT RAIN  35  28  75 SE21      30.05F WCI  24
EVELETH        LGT RAIN  36  28  75 SE14G20   30.11F
DULUTH HARBOR  CLOUDY    34  30  86 NE14      30.17F WCI  24
TWO HARBORS    CLOUDY    32  25  74 E9        30.19S WCI  24
SILVER BAY     CLOUDY    30  28  93 NE12      30.22S WCI  21
GRAND MARAIS     N/A     33  28  81 NE14G22   30.33F WCI  23
G MARAIS ARPRT CLOUDY    27  21  80 E9G17     30.27F WCI  17
$$
MNZ029>031-032-039>041-046>048-054>057-064-191200-
   West Central Minnesota

CITY           SKY/WX    TMP DP  RH WIND       PRES   REMARKS
FERGUS FALLS   CLOUDY    48  36  61 S26G35    29.80S
WHEATON        CLOUDY    50  43  76 SE21G29   29.81R
MORRIS         CLOUDY    46  37  71 SE28G33   29.82F
ALEXANDRIA     CLOUDY    46  35  65 S26G35    29.89R
ELBOW LAKE     FAIR      47  36  67 SE25G37   29.83F
WADENA         RAIN      41  34  75 SE18G24   29.89F
GLENWOOD       CLOUDY    46  36  66 SE26G33   29.90F
APPLETON       CLOUDY    52  39  62 S21G28    29.84F
BENSON         CLOUDY    48  37  66 S22G36    29.88F
ORTONVILLE     CLOUDY    48  39  71 SE14      29.81S
MADISON        CLOUDY    54  43  66 S24       29.83F
WILLMAR        FAIR      45  34  65 SE21G31   29.96F
$$
MNZ033>034-036-042>043-049>051-058-059-191200-
   Central Minnesota

CITY           SKY/WX    TMP DP  RH WIND       PRES   REMARKS
ST CLOUD       CLOUDY    43  30  60 SE17      30.03F
SAUK CENTRE    CLOUDY    44  33  66 SE23G29   29.93F
PAYNESVILLE    DRIZZLE   44  32  63 SE20G26   29.98F
AITKIN         CLOUDY    45  28  53 SE20G31   29.98F
PINE RIVER     RAIN      39  34  81 SE15G21   29.99F
BRAINERD       LGT RAIN  48  29  47 SE20G35   29.96F
STAPLES        LGT RAIN  39  34  81 SE18G30   29.92F
LONG PRAIRIE   CLOUDY    43  32  65 SE23G32   29.94F
LITTLE FALLS   MIX PCPN  39  30  70 SE18      29.98F
LITCHFIELD     CLOUDY    46  34  61 SE15G25   30.02S
BUFFALO        CLOUDY    46  31  57 SE14G24   30.07S
MAPLE LAKE     CLOUDY    45  33  63 SE13G22   30.06F
$$
MNZ037-044-045-052-053-191200-
   East Central Minnesota

CITY           SKY/WX    TMP DP  RH WIND       PRES   REMARKS
PRINCETON      CLOUDY    45  28  53 SE12G21   30.08S
MORA           CLOUDY    39  28  65 SE14      30.12F
CAMBRIDGE      MOCLDY    43  30  61 SE12G21   30.08F
RUSH CITY      MOCLDY    41  29  63 SE13G36   30.11F
MOOSE LAKE     CLOUDY    41  27  56 SE13G18   30.07F
HINCKLEY       CLOUDY    41  30  65 SE14G20   30.11F
CLOQUET        CLOUDY    34  27  75 E13G18    30.08F WCI  25
MCGREGOR       CLOUDY    41  30  65 SE18G32   30.02F
$$
MNZ071>073-080-081-089-090-097-098-191200-
   Southwest Minnesota

CITY           SKY/WX    TMP DP  RH WIND       PRES   REMARKS
MONTEVIDEO     CLOUDY    48  39  71 S16G26    29.90F
GRANITE FALLS  CLOUDY    46  38  72 SE25      29.93S
CANBY          MOCLDY    55  41  58 S24G38    29.83F
MARSHALL       CLOUDY    54  39  58 S28G36    29.89R
REDWOOD FALLS  CLOUDY    48  35  60 SE23G35   29.96S
OLIVIA         CLOUDY    50  36  57 SE20G33   29.97R
PIPESTONE      MOCLDY    52  39  62 S22G28    29.93R
WINDOM         MOCLDY    46  37  71 SE17G25   30.01F
WORTHINGTON    MOCLDY    46  36  66 S16       30.01F
JACKSON        MOCLDY    50  37  62 S17G23    30.06F
TRACY          MOCLDY    51  40  67 S25G32    29.92S
SLAYTON        MOCLDY    48  39  71 SE22      29.95F
$$
MNZ065>067-074>077-082>085-091>093-191200-
   South Central Minnesota

CITY           SKY/WX    TMP DP  RH WIND       PRES   REMARKS
MANKATO        PTCLDY    43  34  70 SE28G33   30.10F
NEW ULM        MOCLDY    45  34  65 SE21G29   30.03F
ST JAMES       MOCLDY    45  32  61 SE18      30.07F
FAIRMONT       PTCLDY    45  28  53 SE17G24   30.11S
GLENCOE        MOCLDY    46  32  57 SE18G31   30.04S
FARIBAULT      PTCLDY    45  32  61 SE20G32   30.15S
OWATONNA       PTCLDY    41  34  75 SE24G33   30.16F
WASECA         PTCLDY    43  36  75 SE23G30   30.15F
ALBERT LEA     PTCLDY    39  36  87 SE14G21   30.18F
$$
MNZ078>079-086>088-094>096-191200-
   Southeast Minnesota

CITY           SKY/WX    TMP DP  RH WIND       PRES   REMARKS
ROCHESTER      CLEAR     38  30  73 SE24G31   30.23R
RED WING       CLOUDY    43  32  65 SE15      30.21F
STANTON        PTCLDY    43  32  65 SE22G30   30.14F
DODGE CENTER   PTCLDY    43  34  70 SE22G32   30.20R
WINONA         CLEAR     37  30  75 SE13      30.31R
AUSTIN         PTCLDY    39  34  81 SE10      30.22R
PRESTON        CLEAR     37  30  76 SE12G21   30.28R
$$
ABBREVIATIONS USED IN REMARKS
   TC - TEMPERATURES IN CELSIUS
  WCI - WIND CHILL INDEX
   HX - HEAT INDEX
  VSB - VISIBILITY
$$


USA.gov is the U.S. government's official web portal to all federal, state and local government web resources and services.